Weather History for London-Corbin, KY

Change the Weather History Date:

Friday, February 7, 2014

  Actual Average Record
Temperature  
Mean Temperature 26 °F 38 °F  
Max Temperature 30 °F 48 °F 67 °F (2009)
Min Temperature 22 °F 28 °F -10 °F (1978)
Degree Days  
Heating Degree Days 39 27  
Month to date heating degree days 209 194  
Since 1 July heating degree days 2940 2757  
Cooling Degree Days 0 0  
Month to date cooling degree days 0 0  
Year to date cooling degree days 0 0  
Moisture  
Dew Point 17 °F    
Average Humidity 72    
Maximum Humidity 81    
Minimum Humidity 63    
Precipitation  
Precipitation 0.00 in 0.13 in 0.65 in (1961)
Month to date precipitation 2.40 0.90  
Year to date precipitation 4.68 4.44  
Sea Level Pressure  
Sea Level Pressure 30.38 in    
Wind  
Wind Speed 3 mph (NNW)    
Max Wind Speed 8 mph    
Max Gust Speed 10 mph    
Visibility 10 miles    
Events      
T = Trace of Precipitation, MM = Missing Value Source: NWS Daily Summary

Daily Weather History Graph

Daily Weather History Graph

Search for Another Location

Airport:

Trip Planner

Search our weather history database for the weather conditions in past years. The results will help you decide how hot, cold, wet, or windy it might be!

Date:

Astronomy

Feb. 07, 2014 Rise Set
Actual Time 7:33 AM EST 6:07 PM EST
Civil Twilight 7:06 AM EST 6:34 PM EST
Nautical Twilight 6:35 AM EST 7:05 PM EST
Astronomical Twilight 6:05 AM EST 7:36 PM EST
Moon 12:20 PM EST (2/7) 1:47 AM EST (2/7)
Length of Visible Light 11h 28m
Length of Day
10h 34m
First Quarter, 59% of the Moon is Illuminated
Feb 7
First Quarter
Feb 14
Full
Feb 22
Last Quarter
Mar 1
New
Mar 8
First Quarter

Hourly Weather History & Observations

Time (EST) Temp. Windchill Dew Point Humidity Pressure Visibility Wind Dir Wind Speed Gust Speed Precip Events Conditions
12:53 AM 25.0 °F 19.3 °F 18.0 °F 75% 30.38 in 10.0 mi NNW 4.6 mph - N/A   Overcast
1:49 AM 24.8 °F 19.1 °F 17.6 °F 74% 30.34 in 10.0 mi NW 4.6 mph - N/A   Overcast
1:53 AM 25.0 °F 19.3 °F 18.0 °F 75% 30.38 in 10.0 mi NNW 4.6 mph - N/A   Overcast
2:53 AM 24.1 °F 17.0 °F 18.0 °F 77% 30.37 in 10.0 mi NW 5.8 mph - N/A   Overcast
3:53 AM 24.1 °F 19.7 °F 17.1 °F 75% 30.39 in 10.0 mi WNW 3.5 mph - N/A   Overcast
4:53 AM 24.1 °F 17.0 °F 17.1 °F 75% 30.39 in 10.0 mi North 5.8 mph - N/A   Overcast
5:53 AM 23.0 °F 15.8 °F 17.1 °F 78% 30.38 in 10.0 mi NNE 5.8 mph - N/A   Overcast
6:53 AM 23.0 °F - 16.0 °F 74% 30.39 in 10.0 mi Calm Calm - N/A   Overcast
7:53 AM 23.0 °F 18.4 °F 17.1 °F 78% 30.40 in 10.0 mi WNW 3.5 mph - N/A   Overcast
8:27 AM 24.1 °F 18.2 °F 17.1 °F 75% 30.38 in 10.0 mi WNW 4.6 mph - N/A   Overcast
8:51 AM 24.8 °F 17.9 °F 17.6 °F 74% 30.38 in 7.0 mi NNE 5.8 mph - N/A   Overcast
8:53 AM 24.1 °F 18.2 °F 17.1 °F 75% 30.42 in 6.0 mi NNE 4.6 mph - N/A   Haze
9:53 AM 24.1 °F - 18.0 °F 77% 30.43 in 8.0 mi Calm Calm - N/A   Overcast
10:02 AM 24.1 °F 19.7 °F 18.0 °F 77% 30.39 in 9.0 mi North 3.5 mph - N/A   Overcast
10:51 AM 24.8 °F 20.5 °F 17.6 °F 74% 30.41 in 10.0 mi WNW 3.5 mph - N/A   Overcast
10:53 AM 25.0 °F 19.3 °F 18.0 °F 75% 30.45 in 10.0 mi West 4.6 mph - N/A   Overcast
11:53 AM 25.0 °F - 18.0 °F 75% 30.45 in 10.0 mi Calm Calm - N/A   Overcast
12:53 PM 26.1 °F 20.5 °F 18.0 °F 71% 30.42 in 10.0 mi WNW 4.6 mph - N/A   Overcast
1:30 PM 26.1 °F - 18.0 °F 71% 30.36 in 10.0 mi Calm Calm - N/A   Overcast
1:53 PM 26.1 °F 20.5 °F 18.0 °F 71% 30.40 in 10.0 mi WSW 4.6 mph - N/A   Overcast
2:53 PM 27.0 °F 21.6 °F 17.1 °F 66% 30.39 in 10.0 mi NW 4.6 mph - N/A   Overcast
3:53 PM 27.0 °F - 17.1 °F 66% 30.38 in 10.0 mi Calm Calm - N/A   Scattered Clouds
4:51 PM 28.4 °F - 17.6 °F 64% 30.34 in 10.0 mi Calm Calm - N/A   Mostly Cloudy
4:53 PM 28.9 °F 25.2 °F 18.0 °F 64% 30.38 in 10.0 mi North 3.5 mph - N/A   Mostly Cloudy
5:53 PM 27.0 °F 23.0 °F 17.1 °F 66% 30.38 in 10.0 mi NE 3.5 mph - N/A   Mostly Cloudy
6:53 PM 26.1 °F 21.9 °F 17.1 °F 69% 30.37 in 10.0 mi North 3.5 mph - N/A   Scattered Clouds
7:53 PM 25.0 °F 19.3 °F 18.0 °F 75% 30.37 in 10.0 mi NNE 4.6 mph - N/A   Clear
8:53 PM 24.1 °F 18.2 °F 17.1 °F 75% 30.34 in 10.0 mi NE 4.6 mph - N/A   Clear
9:53 PM 23.0 °F - 17.1 °F 78% 30.34 in 10.0 mi Calm Calm - N/A   Clear
10:53 PM 23.0 °F - 17.1 °F 78% 30.34 in 10.0 mi Calm Calm - N/A   Scattered Clouds
11:53 PM 23.0 °F 15.8 °F 17.1 °F 78% 30.32 in 10.0 mi NNE 5.8 mph - N/A   Overcast